Regional Weather Roundup
Issued by NWS Huntsville, AL

Home | Current Version | Previous Version | Text Only | Print | Product List | Glossary On
Versions: 1 2 3 4 5 6 7 8 9 10 11 12 13 14 15 16 17 18 19 20 21 22 23 24 25 26 27 28 29 30 31 32 33 34 35 36 37 38 39 40 41 42 43 44 45 46 47 48 49 50
000
ASUS44 KHUN 280110
RWRHUN

WEATHER ROUNDUP FOR THE TENNESSEE VALLEY
NATIONAL WEATHER SERVICE HUNTSVILLE AL
700 PM CST THU NOV 27 2014

ALZ001>004-280200-
NORTHWEST ALABAMA

CITY           SKY/WX    TMP DP  RH WIND       PRES   REMARKS
COURTLAND HCN    N/A     36 N/A N/A NW3         N/A
RUSSELLVILLE     N/A     32 N/A N/A MISG        N/A
SHOALS AIRPORT MOCLDY    37  25  61 NW7       30.48R WCI  32
$$

ALZ005>007-016-280200-
NORTH CENTRAL ALABAMA

CITY           SKY/WX    TMP DP  RH WIND       PRES   REMARKS
CULLMAN AG STN   N/A     37 N/A N/A N5          N/A  WCI  34
DECATUR AP     CLEAR     34  26  72 NW6       30.45R WCI  29
HUNTSVILLE AP  CLEAR     37  26  64 NW6       30.43S WCI  32
HUN NWS/UAH      N/A     37  25  62 NW5         N/A  WCI  33
MERIDIANVILLE  FAIR      34  23  64 NW7       30.43R WCI  28
REDSTONE ARSN  MOCLDY    36  27  70 N7        30.43R WCI  30
VINEMONT AP    FAIR      36  27  70 N5        30.43S WCI  32
$$

ALZ008>010-280200-
NORTHEAST ALABAMA

CITY           SKY/WX    TMP DP  RH WIND       PRES   REMARKS
ALBERTVILLE    CLEAR     36  32  87 NW8       30.39R WCI  29
FORT PAYNE     CLOUDY    37  23  56 N7        30.40S WCI  32
SCOTTSBORO AP  CLOUDY    39  27  60 NW5       30.42S
VALLEY HEAD      N/A     37 N/A N/A MISG        N/A
$$

TNZ076-096-097-280200-
SOUTHEASTERN MIDDLE TENNESSEE

CITY           SKY/WX    TMP DP  RH WIND       PRES   REMARKS
TULLAHOMA      CLOUDY    30  23  74 N8        30.43R WCI  23
WINCHESTER     MOCLDY    30  25  80 N7        30.43R WCI  23
$$

...SURROUNDING SITES...

CITY           SKY/WX    TMP DP  RH WIND       PRES   REMARKS
ATLANTA        MOCLDY    40  25  55 NW8       30.35R WCI  34
ANNISTON       CLEAR     40  26  57 CALM      30.41R
BIRMINGHAM     CLEAR     38  28  67 NW7       30.44R WCI  33
CHATTANOOGA    PTCLDY    35  23  61 N5        30.42R WCI  31
CORINTH        FAIR      34  27  75 CALM      30.48S
DALTON         CLOUDY    36  27  69 NW13      30.40S WCI  27
GADSDEN        CLOUDY    37  25  60 NW5       30.41S WCI  34
GOLDEN TRNGL   CLEAR     36  28  75 CALM      30.46S
HALEYVILLE     FAIR      33  27  79 CALM      30.46R
JACKSON TN     CLEAR     30  24  78 CALM      30.49R
LEWISBURG      CLOUDY    34  24  67 N9        30.45R WCI  27
MEMPHIS        CLEAR     39  27  62 E3        30.48S
MURFREESBORO   CLOUDY    31  23  72 N6        30.47R WCI  25
NASHVILLE      MOCLDY    32  20  61 N9        30.48R WCI  24
OXFORD MS      FAIR      30  27  86 CALM      30.49S
ROME           CLOUDY    40  25  55 NW7       30.39R
SAVANNAH       MOCLDY    34  23  64 N3        30.49S
TUPELO         CLEAR     35  27  72 NE3       30.48S
TUSCALOOSA     PTCLDY    39  29  67 CALM      30.47R
$$

...GULF COAST WEATHER...

CITY           SKY/WX    TMP DP  RH WIND       PRES   REMARKS
GULFPORT       CLEAR     48  33  56 N5        30.43R
PASCAGOULA     CLEAR     46  32  58 NW3       30.43R
MOBILE         CLEAR     45  33  63 N9        30.42S
GULF SHORES    CLEAR     43  33  67 CALM      30.41R
PENSACOLA      CLEAR     48  31  51 N5        30.40R
DESTIN         CLEAR     51  34  52 N14       30.39R
PANAMA CITY    CLEAR     50  37  60 N8        30.37R
APPALACHICOLA  CLEAR     54  34  46 N13       30.34R
$$




USA.gov is the U.S. government's official web portal to all federal, state and local government web resources and services.